User: anonymous   Login
Location: Columbia
(38.9520°N, 92.3340°W)
Time: 13:40:36
(UTC-05:00)
Language:

Meteor 1-4 Rocket - Orbit

View from above orbital plane
View from above orbital plane
View from above satellite
View from above satellite

Ground track
Ground track

The orbit data is extracted from the following two-line orbital elements,

1  4394U 70037B   17289.94161920 +.00001889 +00000-0 +65574-4 0  9993
2  4394 081.2431 231.8551 0041879 068.8403 291.7300 15.28361499583831
Epoch (UTC): 16 October 2017 22:35:55
Eccentricity: 0.0041879
inclination: 81.2431°
perigee height: 452 km
apogee height: 509 km
right ascension of ascending node: 231.8551°
argument of perigee: 68.8403°
revolutions per day: 15.28361499
mean anomaly at epoch: 291.7300°
orbit number at epoch: 58383

The dashed part of the orbit path shows where the satellite is in the earth's shadow,  

DLR